,,Stat6,,Stat2,,Stat8,,Stat9,,Stat10,,Wind1,,Wind1,
time,status,PA1M_AVG,status,PR1M_SUM,status,RH1M_AVG,status,SR1M_AVG,status,TA1M_AVG,status,W1dAve1m,status,W1sAve1m,
2004-04-29, 00:00:00,VALID,915.921,VALID,0,VALID,100,VALID,0,VALID,21.192,VALID,6,VALID,0.634511,
2004-04-29, 00:01:00,VALID,915.92,VALID,0,VALID,100,VALID,0.0169808,VALID,21.2082,VALID,360,VALID,0.300781,
2004-04-29, 00:02:00,VALID,915.917,VALID,0,VALID,100,VALID,0.0339617,VALID,21.2084,VALID,14,VALID,0.619549,
2004-04-29, 00:03:00,VALID,915.922,VALID,0,VALID,100,VALID,-0.0509425,VALID,21.1966,VALID,351,VALID,0.468568,
2004-04-29, 00:04:00,VALID,915.923,VALID,0,VALID,100,VALID,-0.0509425,VALID,21.1995,VALID,2,VALID,0.716654,
2004-04-29, 00:05:00,VALID,915.927,VALID,0,VALID,100,VALID,-0.0339617,VALID,21.2197,VALID,22,VALID,1.23926,
2004-04-29, 00:06:00,VALID,915.929,VALID,0,VALID,100,VALID,-0.0509425,VALID,21.2127,VALID,21,VALID,1.2209,
2004-04-29, 00:07:00,VALID,915.94,VALID,0,VALID,100,VALID,-0.0339617,VALID,21.2103,VALID,14,VALID,1.33975,
2004-04-29, 00:08:00,VALID,915.944,VALID,0,VALID,100,VALID,-0.101885,VALID,21.1842,VALID,15,VALID,1.06632,
2004-04-29, 00:09:00,VALID,915.931,VALID,0,VALID,100,VALID,-0.0679233,VALID,21.1807,VALID,15,VALID,1.21596,
2004-04-29, 00:10:00,VALID,915.956,VALID,0,VALID,100,VALID,-0.0509425,VALID,21.1611,VALID,19,VALID,1.10442,
2004-04-29, 00:11:00,VALID,915.944,VALID,0,VALID,100,VALID,0,VALID,21.1578,VALID,21,VALID,1.06977,
2004-04-29, 00:12:00,VALID,915.954,VALID,0,VALID,100,VALID,-0.0169808,VALID,21.1481,VALID,19,VALID,0.877148,
2004-04-29, 00:13:00,VALID,915.957,VALID,0,VALID,100,VALID,-0.0339617,VALID,21.132,VALID,5,VALID,0.912464,
2004-04-29, 00:14:00,VALID,915.947,VALID,0,VALID,100,VALID,-0.0169808,VALID,21.0962,VALID,14,VALID,0.649009,
2004-04-29, 00:15:00,VALID,915.946,VALID,0,VALID,100,VALID,-0.0339617,VALID,21.0806,VALID,298,VALID,0.760653,
2004-04-29, 00:16:00,VALID,915.935,VALID,0,VALID,100,VALID,-0.0169808,VALID,21.0609,VALID,14,VALID,0.773624,
2004-04-29, 00:17:00,VALID,915.915,VALID,0,VALID,100,VALID,-0.0509425,VALID,21.0738,VALID,340,VALID,0.400618,
2004-04-29, 00:18:00,VALID,915.883,VALID,0,VALID,100,VALID,-0.0169808,VALID,21.0577,VALID,352,VALID,0.483073,
2004-04-29, 00:19:00,VALID,915.851,VALID,0,VALID,100,VALID,0,VALID,21.0679,VALID,352,VALID,0.259588,
2004-04-29, 00:20:00,VALID,915.832,VALID,0,VALID,100,VALID,-0.0169808,VALID,21.0676,VALID,352,VALID,0,
2004-04-29, 00:21:00,VALID,915.823,VALID,0,VALID,100,VALID,-0.0169808,VALID,21.0803,VALID,352,VALID,0.311198,
2004-04-29, 00:22:00,VALID,915.815,VALID,0,VALID,100,VALID,-0.0509425,VALID,21.0711,VALID,352,VALID,0.409339,
2004-04-29, 00:23:00,VALID,915.823,VALID,0,VALID,100,VALID,0,VALID,21.0741,VALID,352,VALID,0,
2004-04-29, 00:24:00,VALID,915.819,VALID,0,VALID,100,VALID,-0.0509425,VALID,21.0841,VALID,352,VALID,0.000177557,
2004-04-29, 00:25:00,VALID,915.823,VALID,0,VALID,100,VALID,-0.0169808,VALID,21.0873,VALID,352,VALID,0.0117188,
2004-04-29, 00:26:00,VALID,915.833,VALID,0,VALID,100,VALID,-0.0679233,VALID,21.1007,VALID,352,VALID,0.342862,
2004-04-29, 00:27:00,VALID,915.823,VALID,0,VALID,100,VALID,-0.0679233,VALID,21.1061,VALID,352,VALID,0.406076,
2004-04-29, 00:28:00,VALID,915.812,VALID,0,VALID,100,VALID,-0.0339617,VALID,21.1325,VALID,357,VALID,0.537024,
2004-04-29, 00:29:00,VALID,915.785,VALID,0,VALID,100,VALID,-0.0509425,VALID,21.1196,VALID,13,VALID,0.770275,
2004-04-29, 00:30:00,VALID,915.759,VALID,0,VALID,100,VALID,-0.0339617,VALID,21.1199,VALID,24,VALID,0.733422,
2004-04-29, 00:31:00,VALID,915.716,VALID,0,VALID,100,VALID,-0.0849042,VALID,21.143,VALID,25,VALID,0.850632,
2004-04-29, 00:32:00,VALID,915.675,VALID,0,VALID,100,VALID,-0.0339617,VALID,21.1425,VALID,21,VALID,0.820126,
2004-04-29, 00:33:00,VALID,915.642,VALID,0,VALID,100,VALID,-0.0169808,VALID,21.1419,VALID,24,VALID,0.823742,
2004-04-29, 00:34:00,VALID,915.605,VALID,0,VALID,100,VALID,-0.0849042,VALID,21.1322,VALID,18,VALID,1.19425,
2004-04-29, 00:35:00,VALID,915.573,VALID,0,VALID,100,VALID,-0.0679233,VALID,21.1258,VALID,20,VALID,1.36701,
2004-04-29, 00:36:00,VALID,915.552,VALID,0,VALID,100,VALID,-0.0339617,VALID,21.1007,VALID,16,VALID,1.10938,
2004-04-29, 00:37:00,VALID,915.533,VALID,0,VALID,100,VALID,-0.0169808,VALID,21.0932,VALID,22,VALID,0.79306,
2004-04-29, 00:38:00,VALID,915.502,VALID,0,VALID,100,VALID,-0.0679233,VALID,21.0905,VALID,38,VALID,0.541797,
2004-04-29, 00:39:00,VALID,915.48,VALID,0,VALID,100,VALID,-0.0679233,VALID,21.0706,VALID,44,VALID,0.209032,
2004-04-29, 00:40:00,VALID,915.466,VALID,0,VALID,100,VALID,-0.0339617,VALID,21.0843,VALID,44,VALID,0.000186012,
2004-04-29, 00:41:00,VALID,915.456,VALID,0,VALID,100,VALID,-0.0339617,VALID,21.0679,VALID,44,VALID,0.00605469,
2004-04-29, 00:42:00,VALID,915.442,VALID,0,VALID,100,VALID,-0.0509425,VALID,21.0711,VALID,44,VALID,0.0014881,
2004-04-29, 00:43:00,VALID,915.45,VALID,0,VALID,100,VALID,-0.101885,VALID,21.0881,VALID,44,VALID,0,
2004-04-29, 00:44:00,VALID,915.447,VALID,0,VALID,100,VALID,-0.0339617,VALID,21.0776,VALID,44,VALID,0.0107195,
2004-04-29, 00:45:00,VALID,915.454,VALID,0,VALID,100,VALID,-0.0339617,VALID,21.0644,VALID,44,VALID,0.00971799,
2004-04-29, 00:46:00,VALID,915.456,VALID,0,VALID,100,VALID,-0.0509425,VALID,21.0552,VALID,44,VALID,0.0167886,
2004-04-29, 00:47:00,VALID,915.472,VALID,0,VALID,100,VALID,-0.0849042,VALID,21.0388,VALID,44,VALID,0,
2004-04-29, 00:48:00,VALID,915.474,VALID,0,VALID,100,VALID,-0.0509425,VALID,21.0353,VALID,44,VALID,0.000887784,
2004-04-29, 00:49:00,VALID,915.475,VALID,0,VALID,100,VALID,-0.0509425,VALID,21.0488,VALID,44,VALID,0.13956,
2004-04-29, 00:50:00,VALID,915.454,VALID,0,VALID,100,VALID,-0.0509425,VALID,21.062,VALID,44,VALID,0.379278,
2004-04-29, 00:51:00,VALID,915.426,VALID,0,VALID,100,VALID,-0.0339617,VALID,21.0714,VALID,35,VALID,0.543423,
2004-04-29, 00:52:00,VALID,915.41,VALID,0,VALID,100,VALID,-0.0339617,VALID,21.0749,VALID,29,VALID,0.555398,
2004-04-29, 00:53:00,VALID,915.393,VALID,0,VALID,100,VALID,-0.0849042,VALID,21.0749,VALID,15,VALID,0.511265,
2004-04-29, 00:54:00,VALID,915.369,VALID,0,VALID,100,VALID,-0.0509425,VALID,21.0555,VALID,19,VALID,0.728795,
2004-04-29, 00:55:00,VALID,915.349,VALID,0,VALID,100,VALID,-0.0339617,VALID,21.01,VALID,12,VALID,0.676136,
2004-04-29, 00:56:00,VALID,915.357,VALID,0,VALID,100,VALID,-0.0339617,VALID,21.0003,VALID,14,VALID,0.833891,
2004-04-29, 00:57:00,VALID,915.357,VALID,0,VALID,100,VALID,-0.0509425,VALID,20.9968,VALID,15,VALID,0.533482,
2004-04-29, 00:58:00,VALID,915.36,VALID,0,VALID,100,VALID,-0.0679233,VALID,20.9898,VALID,15,VALID,0.600654,
2004-04-29, 00:59:00,VALID,915.362,VALID,0,VALID,100,VALID,-0.0849042,VALID,20.9968,VALID,15,VALID,0.598292,
2004-04-29, 01:00:00,VALID,915.37,VALID,0,VALID,100,VALID,-0.0339617,VALID,21.0103,VALID,15,VALID,0.741071,
2004-04-29, 01:01:00,VALID,915.366,VALID,0,VALID,100,VALID,-0.0509425,VALID,20.9939,VALID,15,VALID,0.376999,
2004-04-29, 01:02:00,VALID,915.356,VALID,0,VALID,100,VALID,-0.0169808,VALID,20.978,VALID,15,VALID,0.305414,
2004-04-29, 01:03:00,VALID,915.342,VALID,0,VALID,100,VALID,0.0339617,VALID,20.9506,VALID,15,VALID,0.44186,
2004-04-29, 01:04:00,VALID,915.318,VALID,0,VALID,100,VALID,0.0679233,VALID,20.957,VALID,15,VALID,0.374151,
2004-04-29, 01:05:00,VALID,915.281,VALID,0,VALID,100,VALID,0.0679233,VALID,20.9662,VALID,15,VALID,0.104421,
2004-04-29, 01:06:00,VALID,915.262,VALID,0,VALID,100,VALID,0.0509425,VALID,20.9729,VALID,15,VALID,0.450133,
2004-04-29, 01:07:00,VALID,915.225,VALID,0,VALID,100,VALID,0.0679233,VALID,20.9791,VALID,15,VALID,0.508878,
2004-04-29, 01:08:00,VALID,915.208,VALID,0,VALID,100,VALID,0.0339617,VALID,20.9794,VALID,15,VALID,0.639509,
2004-04-29, 01:09:00,VALID,915.179,VALID,0,VALID,100,VALID,0.101885,VALID,20.9629,VALID,15,VALID,0.460938,
2004-04-29, 01:10:00,VALID,915.14,VALID,0,VALID,100,VALID,0.0509425,VALID,20.9664,VALID,15,VALID,0.199219,
2004-04-29, 01:11:00,VALID,915.114,VALID,0,VALID,100,VALID,0.0509425,VALID,20.9662,VALID,15,VALID,0.0714286,
2004-04-29, 01:12:00,VALID,915.1,VALID,0,VALID,100,VALID,0.0679233,VALID,20.9699,VALID,15,VALID,0.025436,
2004-04-29, 01:13:00,VALID,915.074,VALID,0,VALID,100,VALID,0.0679233,VALID,20.9568,VALID,13,VALID,0.0613839,
2004-04-29, 01:14:00,VALID,915.055,VALID,0,VALID,100,VALID,0.0679233,VALID,20.957,VALID,355,VALID,0.445833,
2004-04-29, 01:15:00,VALID,915.04,VALID,0,VALID,100,VALID,0.0679233,VALID,20.96,VALID,355,VALID,0.365734,
2004-04-29, 01:16:00,VALID,915.019,VALID,0,VALID,100,VALID,0.0509425,VALID,20.9764,VALID,356,VALID,0.476017,
2004-04-29, 01:17:00,VALID,914.997,VALID,0,VALID,100,VALID,0.0169808,VALID,20.9635,VALID,356,VALID,0.357922,
2004-04-29, 01:18:00,VALID,914.994,VALID,0,VALID,100,VALID,-0.0339617,VALID,20.9519,VALID,18,VALID,0.843936,
2004-04-29, 01:19:00,VALID,914.974,VALID,0,VALID,100,VALID,-0.101885,VALID,20.9621,VALID,21,VALID,0.622738,
2004-04-29, 01:20:00,VALID,914.972,VALID,0,VALID,100,VALID,-0.0849042,VALID,20.9586,VALID,21,VALID,0.604567,
2004-04-29, 01:21:00,VALID,914.957,VALID,0,VALID,100,VALID,-0.0509425,VALID,20.9683,VALID,21,VALID,0.557884,
2004-04-29, 01:22:00,VALID,914.95,VALID,0,VALID,100,VALID,-0.0509425,VALID,20.9812,VALID,21,VALID,0.455966,
2004-04-29, 01:23:00,VALID,914.939,VALID,0,VALID,100,VALID,-0.0679233,VALID,20.9745,VALID,21,VALID,0.514482,
2004-04-29, 01:24:00,VALID,914.929,VALID,0,VALID,100,VALID,-0.0849042,VALID,20.9877,VALID,21,VALID,0.443266,
2004-04-29, 01:25:00,VALID,914.923,VALID,0,VALID,100,VALID,-0.101885,VALID,20.9879,VALID,21,VALID,0.248785,
2004-04-29, 01:26:00,VALID,914.92,VALID,0,VALID,100,VALID,-0.0679233,VALID,21.0009,VALID,21,VALID,0.00390625,
2004-04-29, 01:27:00,VALID,914.912,VALID,0,VALID,100,VALID,-0.0679233,VALID,20.9968,VALID,21,VALID,0.0401526,
2004-04-29, 01:28:00,VALID,914.915,VALID,0,VALID,100,VALID,-0.0679233,VALID,20.9904,VALID,21,VALID,0,
2004-04-29, 01:29:00,VALID,914.922,VALID,0,VALID,100,VALID,-0.0849042,VALID,20.9772,VALID,21,VALID,0.0954861,
2004-04-29, 01:30:00,VALID,914.915,VALID,0,VALID,100,VALID,-0.0679233,VALID,20.9686,VALID,21,VALID,0.361607,
2004-04-29, 01:31:00,VALID,914.913,VALID,0,VALID,100,VALID,-0.0509425,VALID,20.9745,VALID,21,VALID,0.25362,
2004-04-29, 01:32:00,VALID,914.906,VALID,0,VALID,100,VALID,-0.0339617,VALID,20.9839,VALID,21,VALID,0.145597,
2004-04-29, 01:33:00,VALID,914.907,VALID,0,VALID,100,VALID,0.0509425,VALID,20.9767,VALID,21,VALID,0.253534,
2004-04-29, 01:34:00,VALID,914.9,VALID,0,VALID,100,VALID,0,VALID,20.9664,VALID,21,VALID,0.442951,
2004-04-29, 01:35:00,VALID,914.908,VALID,0,VALID,100,VALID,0.0339617,VALID,20.9861,VALID,21,VALID,0.707031,
2004-04-29, 01:36:00,VALID,914.905,VALID,0,VALID,100,VALID,0.0339617,VALID,20.9565,VALID,20,VALID,1.01054,
2004-04-29, 01:37:00,VALID,914.893,VALID,0,VALID,100,VALID,0,VALID,20.9341,VALID,5,VALID,0.871466,
2004-04-29, 01:38:00,VALID,914.89,VALID,0,VALID,100,VALID,0.0169808,VALID,20.9341,VALID,4,VALID,0.846657,
2004-04-29, 01:39:00,VALID,914.892,VALID,0,VALID,100,VALID,0.0169808,VALID,20.9217,VALID,3,VALID,0.721058,
2004-04-29, 01:40:00,VALID,914.894,VALID,0,VALID,100,VALID,0.0169808,VALID,20.9153,VALID,8,VALID,0.912287,
2004-04-29, 01:41:00,VALID,914.892,VALID,0,VALID,100,VALID,0,VALID,20.9156,VALID,15,VALID,0.664993,
2004-04-29, 01:42:00,VALID,914.888,VALID,0,VALID,100,VALID,0.0169808,VALID,20.9188,VALID,16,VALID,0.848366,
2004-04-29, 01:43:00,VALID,914.886,VALID,0,VALID,100,VALID,0,VALID,20.9215,VALID,17,VALID,0.748242,
2004-04-29, 01:44:00,VALID,914.879,VALID,0,VALID,100,VALID,0,VALID,20.9344,VALID,19,VALID,0.616992,
2004-04-29, 01:45:00,VALID,914.876,VALID,0,VALID,100,VALID,0.0169808,VALID,20.9347,VALID,18,VALID,0.709847,
2004-04-29, 01:46:00,VALID,914.877,VALID,0,VALID,100,VALID,0,VALID,20.9217,VALID,15,VALID,1.00625,
2004-04-29, 01:47:00,VALID,914.856,VALID,0,VALID,100,VALID,-0.0169808,VALID,20.9026,VALID,14,VALID,0.864583,
2004-04-29, 01:48:00,VALID,914.863,VALID,0,VALID,100,VALID,0.0169808,VALID,20.8956,VALID,13,VALID,0.56436,
2004-04-29, 01:49:00,VALID,914.869,VALID,0,VALID,100,VALID,0.0169808,VALID,20.9083,VALID,13,VALID,0.706854,
2004-04-29, 01:50:00,VALID,914.88,VALID,0,VALID,100,VALID,0,VALID,20.9059,VALID,12,VALID,0.725,
2004-04-29, 01:51:00,VALID,914.873,VALID,0,VALID,100,VALID,0.0339617,VALID,20.8959,VALID,7,VALID,0.784801,
2004-04-29, 01:52:00,VALID,914.866,VALID,0,VALID,100,VALID,0.0339617,VALID,20.8991,VALID,358,VALID,0.678125,
2004-04-29, 01:53:00,VALID,914.854,VALID,0,VALID,100,VALID,0.0169808,VALID,20.8825,VALID,359,VALID,0.834302,
2004-04-29, 01:54:00,VALID,914.851,VALID,0,VALID,100,VALID,0.0169808,VALID,20.8991,VALID,1,VALID,0.84184,
2004-04-29, 01:55:00,VALID,914.826,VALID,0,VALID,100,VALID,0.0169808,VALID,20.8887,VALID,14,VALID,1.09877,
2004-04-29, 01:56:00,VALID,914.803,VALID,0,VALID,100,VALID,0.0169808,VALID,20.8924,VALID,18,VALID,0.891768,
2004-04-29, 01:57:00,VALID,914.783,VALID,0,VALID,100,VALID,0.0169808,VALID,20.8986,VALID,356,VALID,0.782986,
2004-04-29, 01:58:00,VALID,914.77,VALID,0,VALID,100,VALID,0,VALID,20.8927,VALID,349,VALID,0.515067,
2004-04-29, 01:59:00,VALID,914.731,VALID,0,VALID,100,VALID,0.0509425,VALID,20.8825,VALID,4,VALID,0.639844,
2004-04-29, 02:00:00,VALID,914.716,VALID,0,VALID,100,VALID,0.0509425,VALID,20.8763,VALID,4,VALID,0.954055,
2004-04-29, 02:01:00,VALID,914.697,VALID,0,VALID,100,VALID,0.0169808,VALID,20.8832,VALID,5,VALID,0.57832,
2004-04-29, 02:02:00,VALID,914.661,VALID,0,VALID,100,VALID,0.0339617,VALID,20.883,VALID,339,VALID,0.480035,
2004-04-29, 02:03:00,VALID,914.637,VALID,0,VALID,100,VALID,-0.0679233,VALID,20.8771,VALID,9,VALID,0.840625,
2004-04-29, 02:04:00,VALID,914.603,VALID,0,VALID,100,VALID,-0.101885,VALID,20.9037,VALID,23,VALID,0.885547,
2004-04-29, 02:05:00,VALID,914.58,VALID,0,VALID,100,VALID,-0.0849042,VALID,20.9397,VALID,24,VALID,0.991602,
2004-04-29, 02:06:00,VALID,914.538,VALID,0,VALID,100,VALID,-0.101885,VALID,20.933,VALID,19,VALID,0.817969,
2004-04-29, 02:07:00,VALID,914.505,VALID,0,VALID,100,VALID,-0.0849042,VALID,20.9362,VALID,14,VALID,0.778525,
2004-04-29, 02:08:00,VALID,914.479,VALID,0,VALID,100,VALID,-0.101885,VALID,20.9594,VALID,14,VALID,0.358631,
2004-04-29, 02:09:00,VALID,914.454,VALID,0,VALID,100,VALID,-0.118866,VALID,20.9494,VALID,15,VALID,0.764101,
2004-04-29, 02:10:00,VALID,914.415,VALID,0,VALID,100,VALID,-0.0509425,VALID,20.9322,VALID,22,VALID,1.13754,
2004-04-29, 02:11:00,VALID,914.383,VALID,0,VALID,100,VALID,-0.101885,VALID,20.9255,VALID,16,VALID,0.982986,
2004-04-29, 02:12:00,VALID,914.346,VALID,0,VALID,100,VALID,-0.0509425,VALID,20.936,VALID,24,VALID,0.787729,
2004-04-29, 02:13:00,VALID,914.313,VALID,0,VALID,100,VALID,-0.0679233,VALID,20.926,VALID,21,VALID,1.02788,
2004-04-29, 02:14:00,VALID,914.277,VALID,0,VALID,100,VALID,-0.0679233,VALID,20.9201,VALID,8,VALID,0.944931,
2004-04-29, 02:15:00,VALID,914.246,VALID,0,VALID,100,VALID,-0.101885,VALID,20.901,VALID,20,VALID,1.0169,
2004-04-29, 02:16:00,VALID,914.217,VALID,0,VALID,100,VALID,-0.0679233,VALID,20.9039,VALID,18,VALID,0.610828,
2004-04-29, 02:17:00,VALID,914.182,VALID,0,VALID,100,VALID,-0.0679233,VALID,20.9002,VALID,22,VALID,1.24609,
2004-04-29, 02:18:00,VALID,914.171,VALID,0,VALID,100,VALID,-0.0509425,VALID,20.9263,VALID,22,VALID,0.850038,
2004-04-29, 02:19:00,VALID,914.153,VALID,0,VALID,100,VALID,-0.0849042,VALID,20.926,VALID,21,VALID,0.735283,
2004-04-29, 02:20:00,VALID,914.147,VALID,0,VALID,100,VALID,-0.0679233,VALID,20.9193,VALID,7,VALID,0.602431,
2004-04-29, 02:21:00,VALID,914.146,VALID,0,VALID,100,VALID,-0.0849042,VALID,20.9101,VALID,11,VALID,0.848586,
2004-04-29, 02:22:00,VALID,914.157,VALID,0,VALID,100,VALID,-0.101885,VALID,20.9034,VALID,4,VALID,0.336509,
2004-04-29, 02:23:00,VALID,914.149,VALID,0,VALID,100,VALID,-0.101885,VALID,20.8846,VALID,2,VALID,0.861979,
2004-04-29, 02:24:00,VALID,914.124,VALID,0,VALID,100,VALID,-0.0339617,VALID,20.8681,VALID,29,VALID,0.666921,
2004-04-29, 02:25:00,VALID,914.115,VALID,0,VALID,100,VALID,-0.0849042,VALID,20.8743,VALID,20,VALID,0.72526,
2004-04-29, 02:26:00,VALID,914.104,VALID,0,VALID,100,VALID,-0.0509425,VALID,20.8811,VALID,23,VALID,0.97237,
2004-04-29, 02:27:00,VALID,914.084,VALID,0,VALID,100,VALID,-0.0169808,VALID,20.8808,VALID,21,VALID,0.968928,
2004-04-29, 02:28:00,VALID,914.076,VALID,0,VALID,100,VALID,-0.0849042,VALID,20.8811,VALID,26,VALID,0.887386,
2004-04-29, 02:29:00,VALID,914.067,VALID,0,VALID,100,VALID,-0.0679233,VALID,20.8617,VALID,11,VALID,1.0883,
2004-04-29, 02:30:00,VALID,914.065,VALID,0,VALID,100,VALID,-0.0509425,VALID,20.8676,VALID,20,VALID,0.47603,
2004-04-29, 02:31:00,VALID,914.039,VALID,0,VALID,100,VALID,-0.0849042,VALID,20.8649,VALID,32,VALID,0.784268,
2004-04-29, 02:32:00,VALID,914.032,VALID,0,VALID,100,VALID,-0.0849042,VALID,20.8619,VALID,20,VALID,0.236235,
2004-04-29, 02:33:00,VALID,914.027,VALID,0,VALID,100,VALID,-0.101885,VALID,20.8587,VALID,19,VALID,0.00457317,
2004-04-29, 02:34:00,VALID,914.008,VALID,0,VALID,100,VALID,-0.0679233,VALID,20.8684,VALID,36,VALID,0.0755208,
2004-04-29, 02:35:00,VALID,913.99,VALID,0,VALID,100,VALID,-0.101885,VALID,20.8746,VALID,24,VALID,0.354651,
2004-04-29, 02:36:00,VALID,913.989,VALID,0,VALID,100,VALID,-0.0679233,VALID,20.8905,VALID,10,VALID,0.410714,
2004-04-29, 02:37:00,VALID,913.981,VALID,0,VALID,100,VALID,-0.0339617,VALID,20.9072,VALID,10,VALID,0.183685,
2004-04-29, 02:38:00,VALID,913.969,VALID,0,VALID,100,VALID,-0.0509425,VALID,20.9037,VALID,10,VALID,0.0649182,
2004-04-29, 02:39:00,VALID,913.975,VALID,0,VALID,100,VALID,-0.0849042,VALID,20.9074,VALID,10,VALID,0.394817,
2004-04-29, 02:40:00,VALID,913.963,VALID,0,VALID,100,VALID,-0.0849042,VALID,20.9007,VALID,17,VALID,0.674733,
2004-04-29, 02:41:00,VALID,913.953,VALID,0,VALID,100,VALID,-0.101885,VALID,20.887,VALID,30,VALID,0.54794,
2004-04-29, 02:42:00,VALID,913.951,VALID,0,VALID,100,VALID,-0.0849042,VALID,20.8846,VALID,29,VALID,0.131138,
2004-04-29, 02:43:00,VALID,913.937,VALID,0,VALID,100,VALID,-0.0849042,VALID,20.8908,VALID,29,VALID,0.134146,
2004-04-29, 02:44:00,VALID,913.914,VALID,0,VALID,100,VALID,-0.0679233,VALID,20.8881,VALID,29,VALID,0.070503,
2004-04-29, 02:45:00,VALID,913.899,VALID,0,VALID,100,VALID,-0.0679233,VALID,20.8945,VALID,29,VALID,0.0267857,
2004-04-29, 02:46:00,VALID,913.883,VALID,0,VALID,100,VALID,-0.0679233,VALID,20.8843,VALID,29,VALID,0,
2004-04-29, 02:47:00,VALID,913.892,VALID,0,VALID,100,VALID,-0.0849042,VALID,20.8811,VALID,29,VALID,0,
2004-04-29, 02:48:00,VALID,913.875,VALID,0,VALID,100,VALID,-0.101885,VALID,20.9109,VALID,29,VALID,0,
2004-04-29, 02:49:00,VALID,913.863,VALID,0,VALID,100,VALID,-0.0679233,VALID,20.9072,VALID,29,VALID,0,
2004-04-29, 02:50:00,VALID,913.86,VALID,0,VALID,100,VALID,-0.0339617,VALID,20.9104,VALID,29,VALID,0.0305398,
2004-04-29, 02:51:00,VALID,913.855,VALID,0,VALID,100,VALID,-0.0339617,VALID,20.9134,VALID,29,VALID,0.021875,
2004-04-29, 02:52:00,VALID,913.85,VALID,0,VALID,100,VALID,-0.0849042,VALID,20.9072,VALID,57,VALID,0.167969,
2004-04-29, 02:53:00,VALID,913.821,VALID,0,VALID,100,VALID,-0.0509425,VALID,20.8975,VALID,127,VALID,0.350109,
2004-04-29, 02:54:00,VALID,913.807,VALID,0,VALID,100,VALID,-0.0509425,VALID,20.8714,VALID,127,VALID,0.303925,
2004-04-29, 02:55:00,VALID,913.796,VALID,0,VALID,100,VALID,-0.0849042,VALID,20.8423,VALID,127,VALID,0.192951,
2004-04-29, 02:56:00,VALID,913.777,VALID,0,VALID,100,VALID,-0.0509425,VALID,20.8463,VALID,127,VALID,0.083939,
2004-04-29, 02:57:00,VALID,913.749,VALID,0,VALID,100,VALID,-0.101885,VALID,20.8428,VALID,127,VALID,0.0550509,
2004-04-29, 02:58:00,VALID,913.725,VALID,0,VALID,100,VALID,-0.0679233,VALID,20.8496,VALID,127,VALID,0.104992,
2004-04-29, 02:59:00,VALID,913.699,VALID,0,VALID,100,VALID,-0.0679233,VALID,20.8555,VALID,107,VALID,0.243963,
2004-04-29, 03:00:00,VALID,913.692,VALID,0.2,VALID,100,VALID,-0.0849042,VALID,20.8848,VALID,45,VALID,0.351563,
2004-04-29, 03:01:00,VALID,913.675,VALID,0,VALID,100,VALID,-0.101885,VALID,20.8977,VALID,45,VALID,0,
2004-04-29, 03:02:00,VALID,913.661,VALID,0,VALID,100,VALID,-0.101885,VALID,20.9134,VALID,45,VALID,0.0582031,
2004-04-29, 03:03:00,VALID,913.649,VALID,0,VALID,100,VALID,-0.0849042,VALID,20.8972,VALID,45,VALID,0.140439,
2004-04-29, 03:04:00,VALID,913.633,VALID,0,VALID,100,VALID,-0.0849042,VALID,20.8846,VALID,45,VALID,0.0747768,
2004-04-29, 03:05:00,VALID,913.626,VALID,0,VALID,100,VALID,-0.0169808,VALID,20.8773,VALID,45,VALID,0,
2004-04-29, 03:06:00,VALID,913.632,VALID,0,VALID,100,VALID,-0.0509425,VALID,20.8808,VALID,45,VALID,0,
2004-04-29, 03:07:00,VALID,913.644,VALID,0,VALID,100,VALID,-0.0849042,VALID,20.8975,VALID,45,VALID,0.0769097,
2004-04-29, 03:08:00,VALID,913.645,VALID,0,VALID,100,VALID,-0.0509425,VALID,20.8873,VALID,48,VALID,0.233994,
2004-04-29, 03:09:00,VALID,913.653,VALID,0,VALID,100,VALID,-0.101885,VALID,20.8746,VALID,49,VALID,0.162791,
2004-04-29, 03:10:00,VALID,913.669,VALID,0,VALID,100,VALID,-0.0849042,VALID,20.852,VALID,109,VALID,0.423438,
2004-04-29, 03:11:00,VALID,913.677,VALID,0,VALID,100,VALID,-0.0849042,VALID,20.8259,VALID,223,VALID,0.450218,
2004-04-29, 03:12:00,VALID,913.684,VALID,0,VALID,100,VALID,-0.0679233,VALID,20.8197,VALID,223,VALID,0.0958984,
2004-04-29, 03:13:00,VALID,913.69,VALID,0,VALID,100,VALID,-0.0509425,VALID,20.8003,VALID,223,VALID,0.341146,
2004-04-29, 03:14:00,VALID,913.691,VALID,0,VALID,100,VALID,-0.0849042,VALID,20.7944,VALID,232,VALID,0.875558,
2004-04-29, 03:15:00,VALID,913.707,VALID,0,VALID,100,VALID,-0.0679233,VALID,20.765,VALID,239,VALID,0.836483,
2004-04-29, 03:16:00,VALID,913.714,VALID,0,VALID,100,VALID,-0.0849042,VALID,20.7712,VALID,238,VALID,0.154247,
2004-04-29, 03:17:00,VALID,913.714,VALID,0,VALID,100,VALID,-0.0849042,VALID,20.7785,VALID,238,VALID,0,
2004-04-29, 03:18:00,VALID,913.715,VALID,0,VALID,100,VALID,-0.101885,VALID,20.7941,VALID,238,VALID,0,
2004-04-29, 03:19:00,VALID,913.718,VALID,0,VALID,100,VALID,-0.0849042,VALID,20.8011,VALID,238,VALID,0.114281,
2004-04-29, 03:20:00,VALID,913.717,VALID,0,VALID,100,VALID,-0.101885,VALID,20.7906,VALID,238,VALID,0.249814,
2004-04-29, 03:21:00,VALID,913.711,VALID,0.2,VALID,100,VALID,-0.0849042,VALID,20.7777,VALID,238,VALID,0.210565,
2004-04-29, 03:22:00,VALID,913.719,VALID,0,VALID,100,VALID,-0.0679233,VALID,20.775,VALID,238,VALID,0.083939,
2004-04-29, 03:23:00,VALID,913.717,VALID,0,VALID,100,VALID,-0.101885,VALID,20.7849,VALID,238,VALID,0.100109,
2004-04-29, 03:24:00,VALID,913.705,VALID,0,VALID,100,VALID,-0.0679233,VALID,20.7648,VALID,238,VALID,0.196911,
2004-04-29, 03:25:00,VALID,913.715,VALID,0,VALID,100,VALID,-0.0849042,VALID,20.7588,VALID,238,VALID,0.256944,
2004-04-29, 03:26:00,VALID,913.71,VALID,0,VALID,100,VALID,-0.0509425,VALID,20.7616,VALID,238,VALID,0.0908918,
2004-04-29, 03:27:00,VALID,913.705,VALID,0,VALID,100,VALID,-0.101885,VALID,20.7616,VALID,238,VALID,0,
2004-04-29, 03:28:00,VALID,913.696,VALID,0,VALID,100,VALID,-0.101885,VALID,20.768,VALID,238,VALID,0.00308866,
2004-04-29, 03:29:00,VALID,913.693,VALID,0,VALID,100,VALID,-0.101885,VALID,20.7718,VALID,238,VALID,0,
2004-04-29, 03:30:00,VALID,913.683,VALID,0,VALID,100,VALID,-0.0679233,VALID,20.7812,VALID,238,VALID,0.138889,
2004-04-29, 03:31:00,VALID,913.669,VALID,0,VALID,100,VALID,-0.0679233,VALID,20.7906,VALID,249,VALID,0.256288,
2004-04-29, 03:32:00,VALID,913.658,VALID,0,VALID,100,VALID,-0.101885,VALID,20.7911,VALID,249,VALID,0.128634,
2004-04-29, 03:33:00,VALID,913.658,VALID,0.2,VALID,100,VALID,0,VALID,20.7697,VALID,249,VALID,0.118924,
2004-04-29, 03:34:00,VALID,913.645,VALID,0,VALID,100,VALID,0,VALID,20.7702,VALID,249,VALID,0,
2004-04-29, 03:35:00,VALID,913.652,VALID,0,VALID,100,VALID,0,VALID,20.767,VALID,249,VALID,0.0247093,
2004-04-29, 03:36:00,VALID,913.646,VALID,0,VALID,100,VALID,0.0339617,VALID,20.7602,VALID,249,VALID,0.132292,
2004-04-29, 03:37:00,VALID,913.639,VALID,0,VALID,100,VALID,0.0339617,VALID,20.7503,VALID,249,VALID,0,
2004-04-29, 03:38:00,VALID,913.644,VALID,0,VALID,100,VALID,0,VALID,20.7578,VALID,249,VALID,0,